Regional Weather Roundup
Issued by NWS

Home | Current Version | Previous Version | Text Only | Print | Product List | Glossary On
Versions: 1 2 3 4 5 6 7 8 9 10 11 12 13 14 15 16 17 18 19 20 21 22 23 24 25 26 27 28 29 30 31 32 33 34 35 36 37 38 39 40 41 42 43 44 45 46 47 48 49 50
000
ASUS43 KLSX 010307
RWRMO

WEATHER SUMMARY FOR MISSOURI
NATIONAL WEATHER SERVICE SPRINGFIELD MO
1000 PM CDT SUN APR 30 2017

NOTE: "FAIR" INDICATES FEW OR NO CLOUDS BELOW 12,000 FEET WITH NO
       SIGNIFICANT WEATHER AND/OR OBSTRUCTIONS TO VISIBILITY.
       CURRENT SKY AND/OR WEATHER CONDITIONS ARE NOT AVAILABLE FOR
       CHILLICOTHE AND FARMINGTON.

MOZ001>031-035>038-043-044-053-054-010400-
...NORTHERN AND WESTERN MISSOURI...

CITY           SKY/WX    TMP DP  RH WIND       PRES   REMARKS
KANSAS CTY INT CLOUDY    44  41  89 S7        29.47F
KANSAS C DTWN  LGT RAIN N/A N/A N/A S10       29.48S
LEE`S SUMMIT   CLOUDY    46  42  86 S14       29.48F
ST JOSEPH      CLOUDY    48  41  76 S9        29.47F
CHILLICOTHE      N/A     51  38  60 S10       29.50S
KIRKSVILLE     CLOUDY    49  31  49 S3        29.53R

$$
MOZ066>068-077>081-088>096-101>105-010400-
...SOUTHWEST MISSOURI...

CITY           SKY/WX    TMP DP  RH WIND       PRES   REMARKS
SPRINGFIELD    CLOUDY    50  38  63 S20G26    29.57S
JOPLIN         LGT RAIN  49  41  74 S24G40    29.54S
BRANSON        CLOUDY    48  37  66 SW6       29.62S

$$
MOZ032>034-039>042-045>050-055>058-069>072-010400-
...CENTRAL MISSOURI...

CITY           SKY/WX    TMP DP  RH WIND       PRES   REMARKS
COLUMBIA       CLOUDY    54  43  66 SW13      29.54S
JEFFERSON CITY CLOUDY    60  39  45 SW17G25   29.55R
ROLLA          MOCLDY    54  40  59 S12       29.55R
SEDALIA        PTCLDY    51  41  68 S18G25    29.52F
WHITEMAN AFB   CLOUDY    49  42  76 S13       29.49F
OSAGE BEACH    CLOUDY    52  40  63 SW16G24   29.58R

$$
MOZ051-052-059>065-010400-
...EAST CENTRAL MISSOURI...

CITY           SKY/WX    TMP DP  RH WIND       PRES   REMARKS
ST LOUIS INTL  PTCLDY    66  46  48 S14G22    29.53R
SPIRIT OF STL  PTCLDY    63  48  58 S7          N/A
ST CHARLES     CLEAR     64  48  56 S17       29.51R

$$
MOZ072>076-082>087-097>100-106>115-010400-
...SOUTH CENTRAL AND SOUTHEAST MISSOURI...

CITY           SKY/WX    TMP DP  RH WIND       PRES   REMARKS
CAPE GIRARDEAU MOCLDY    62  50  64 SW23G29   29.65R
FARMINGTON     CLEAR     58  47  66 S13       29.59R
POPLAR BLUFF   CLEAR     61  45  55 SW24G38   29.66R
WEST PLAINS    PTCLDY    55  38  52 S13G29    29.62F

$$


USA.gov is the U.S. government's official web portal to all federal, state and local government web resources and services.